AXM703 WMKK-WSSS

Flight info

Callsign AXM703
Flight time 0h 41m
Altitude 23000
Route RUSB1F RUSBU Y511 TOPOR A464 ARAMA ARAM1A
Aircraft A20N/M-SDE1FGHIJ1RWXYZ/LB1

Departure

Time 2026-05-07 01:40
Airport Kuala Lumpur International Airport (WMKK)

Arrival

Time 2026-05-07 02:21
Airport Singapore Changi Airport (WSSS)
Time Latitude Longitude Altitude Speed Heading
2026-05-07 01:07 2.74106 101.68581 74 ft 0 kts 326°
2026-05-07 01:28 2.74105 101.68581 75 ft 0 kts 326°
2026-05-07 01:28 2.74094 101.68589 75 ft 2 kts 326°
2026-05-07 01:28 2.74081 101.68597 75 ft 2 kts 303°
2026-05-07 01:29 2.74077 101.68612 75 ft 2 kts 266°
2026-05-07 01:29 2.74082 101.68626 74 ft 2 kts 230°
2026-05-07 01:29 2.74091 101.68639 74 ft 1 kts 238°
2026-05-07 01:29 2.74093 101.68641 75 ft 0 kts 238°
2026-05-07 01:32 2.74090 101.68638 74 ft 1 kts 234°
2026-05-07 01:32 2.74075 101.68626 74 ft 4 kts 211°
2026-05-07 01:32 2.74023 101.68604 74 ft 10 kts 206°
2026-05-07 01:32 2.73969 101.68543 74 ft 13 kts 236°
2026-05-07 01:33 2.73906 101.68451 74 ft 17 kts 237°
2026-05-07 01:33 2.73837 101.68350 74 ft 17 kts 236°
2026-05-07 01:33 2.73768 101.68249 74 ft 17 kts 237°
2026-05-07 01:33 2.73725 101.68184 74 ft 9 kts 232°
2026-05-07 01:34 2.73671 101.68184 74 ft 9 kts 146°
2026-05-07 01:34 2.73603 101.68231 74 ft 13 kts 144°
2026-05-07 01:34 2.73513 101.68292 74 ft 17 kts 147°
2026-05-07 01:34 2.73405 101.68362 74 ft 19 kts 146°
2026-05-07 01:35 2.73282 101.68446 74 ft 23 kts 147°
2026-05-07 01:35 2.73141 101.68539 74 ft 24 kts 145°
2026-05-07 01:35 2.73001 101.68635 74 ft 23 kts 146°
2026-05-07 01:35 2.72867 101.68725 74 ft 22 kts 147°
2026-05-07 01:36 2.72737 101.68810 74 ft 21 kts 146°
2026-05-07 01:36 2.72613 101.68895 74 ft 21 kts 146°
2026-05-07 01:36 2.72492 101.68976 74 ft 20 kts 147°
2026-05-07 01:36 2.72375 101.69056 74 ft 19 kts 147°
2026-05-07 01:37 2.72258 101.69131 74 ft 19 kts 156°
2026-05-07 01:37 2.72148 101.69202 74 ft 18 kts 142°
2026-05-07 01:37 2.72041 101.69276 74 ft 18 kts 146°
2026-05-07 01:37 2.71936 101.69349 74 ft 18 kts 144°
2026-05-07 01:38 2.71842 101.69383 74 ft 13 kts 202°
2026-05-07 01:38 2.71776 101.69314 74 ft 14 kts 234°
2026-05-07 01:38 2.71764 101.69225 74 ft 13 kts 308°
2026-05-07 01:38 2.71804 101.69148 74 ft 11 kts 256°
2026-05-07 01:39 2.71806 101.69096 74 ft 6 kts 334°
2026-05-07 01:39 2.71845 101.69073 74 ft 7 kts 327°
2026-05-07 01:39 2.71985 101.68980 74 ft 56 kts 326°
2026-05-07 01:39 2.72503 101.68632 75 ft 120 kts 326°
2026-05-07 01:40 2.73363 101.68053 77 ft 172 kts 326°
2026-05-07 01:40 2.74409 101.67348 481 ft 182 kts 326°
2026-05-07 01:40 2.75456 101.66645 1167 ft 179 kts 324°
2026-05-07 01:40 2.76209 101.65649 1647 ft 192 kts 284°
2026-05-07 01:41 2.76274 101.64245 2078 ft 208 kts 269°
2026-05-07 01:41 2.76247 101.62749 2509 ft 225 kts 269°
2026-05-07 01:41 2.76243 101.61113 2908 ft 246 kts 270°
2026-05-07 01:41 2.76066 101.59328 3336 ft 266 kts 250°
2026-05-07 01:42 2.75043 101.57740 3931 ft 276 kts 220°
2026-05-07 01:42 2.73373 101.56812 4731 ft 276 kts 192°
2026-05-07 01:42 2.71475 101.56744 5535 ft 275 kts 168°
2026-05-07 01:42 2.69592 101.57147 6333 ft 279 kts 167°
2026-05-07 01:43 2.67654 101.57436 7106 ft 283 kts 173°
2026-05-07 01:43 2.65660 101.57538 7872 ft 287 kts 176°
2026-05-07 01:43 2.63666 101.57651 8599 ft 290 kts 170°
2026-05-07 01:43 2.61676 101.58078 9324 ft 291 kts 160°
2026-05-07 01:44 2.59741 101.58749 10028 ft 294 kts 157°
2026-05-07 01:44 2.57790 101.59483 10578 ft 303 kts 157°
2026-05-07 01:44 2.55752 101.60256 10894 ft 321 kts 157°
2026-05-07 01:44 2.53585 101.61073 11262 ft 335 kts 157°
2026-05-07 01:45 2.51369 101.61900 11868 ft 340 kts 157°
2026-05-07 01:45 2.49131 101.62733 12531 ft 343 kts 157°
2026-05-07 01:45 2.46893 101.63565 13150 ft 346 kts 157°
2026-05-07 01:45 2.44589 101.64422 13761 ft 350 kts 157°
2026-05-07 01:46 2.42309 101.65268 14352 ft 353 kts 157°
2026-05-07 01:46 2.39960 101.66140 14941 ft 356 kts 157°
2026-05-07 01:46 2.37638 101.67052 15504 ft 358 kts 152°
2026-05-07 01:46 2.35499 101.68289 16041 ft 358 kts 142°
2026-05-07 01:47 2.33585 101.69891 16582 ft 358 kts 133°
2026-05-07 01:47 2.31805 101.71670 17110 ft 361 kts 131°
2026-05-07 01:47 2.30038 101.73484 17624 ft 363 kts 131°
2026-05-07 01:47 2.28255 101.75314 18128 ft 366 kts 132°
2026-05-07 01:48 2.26471 101.77138 18603 ft 370 kts 132°
2026-05-07 01:48 2.24641 101.79003 19068 ft 373 kts 132°
2026-05-07 01:48 2.22815 101.80859 19538 ft 376 kts 132°
2026-05-07 01:48 2.20975 101.82726 19998 ft 378 kts 132°
2026-05-07 01:49 2.19121 101.84609 20465 ft 381 kts 132°
2026-05-07 01:49 2.17233 101.86523 20923 ft 383 kts 132°
2026-05-07 01:49 2.15357 101.88427 21365 ft 385 kts 132°
2026-05-07 01:49 2.13476 101.90336 21811 ft 387 kts 132°
2026-05-07 01:50 2.11580 101.92260 22233 ft 389 kts 132°
2026-05-07 01:50 2.09671 101.94198 22641 ft 392 kts 132°
2026-05-07 01:50 2.07726 101.96171 22840 ft 393 kts 132°
2026-05-07 01:50 2.05954 101.98228 22832 ft 390 kts 121°
2026-05-07 01:51 2.04785 102.00681 22841 ft 388 kts 105°
2026-05-07 01:51 2.04317 102.03314 22849 ft 387 kts 93°
2026-05-07 01:51 2.04195 102.06014 22849 ft 387 kts 91°
2026-05-07 01:51 2.04096 102.08707 22847 ft 387 kts 91°
2026-05-07 01:52 2.03995 102.11410 22846 ft 387 kts 91°
2026-05-07 01:52 2.03889 102.14084 22847 ft 387 kts 92°
2026-05-07 01:52 2.03777 102.16791 22847 ft 387 kts 92°
2026-05-07 01:52 2.03662 102.19498 22847 ft 387 kts 92°
2026-05-07 01:53 2.03548 102.22163 22847 ft 387 kts 92°
2026-05-07 01:53 2.03431 102.24857 22850 ft 387 kts 92°
2026-05-07 01:53 2.03314 102.27552 22850 ft 387 kts 92°
2026-05-07 01:53 2.03198 102.30241 22850 ft 387 kts 92°
2026-05-07 01:54 2.03082 102.32931 22852 ft 387 kts 92°
2026-05-07 01:54 2.02964 102.35636 22852 ft 388 kts 92°
2026-05-07 01:54 2.02847 102.38346 22849 ft 388 kts 92°
2026-05-07 01:54 2.02729 102.41065 22848 ft 388 kts 92°
2026-05-07 01:55 2.02611 102.43752 22849 ft 388 kts 92°
2026-05-07 01:55 2.02492 102.46471 22847 ft 388 kts 92°
2026-05-07 01:55 2.02255 102.49131 22839 ft 388 kts 101°
2026-05-07 01:55 2.01444 102.51743 22842 ft 389 kts 113°
2026-05-07 01:56 2.00102 102.54096 22848 ft 391 kts 124°
2026-05-07 01:56 1.98474 102.56290 22846 ft 391 kts 126°
2026-05-07 01:56 1.96816 102.58465 22846 ft 391 kts 126°
2026-05-07 01:56 1.95148 102.60654 22844 ft 392 kts 126°
2026-05-07 01:57 1.93510 102.62813 22845 ft 392 kts 126°
2026-05-07 01:57 1.91851 102.65005 22845 ft 392 kts 126°
2026-05-07 01:57 1.90214 102.67175 22844 ft 392 kts 126°
2026-05-07 01:57 1.88555 102.69376 22843 ft 392 kts 126°
2026-05-07 01:58 1.86903 102.71569 22846 ft 392 kts 126°
2026-05-07 01:58 1.85254 102.73759 22845 ft 392 kts 126°
2026-05-07 01:58 1.83605 102.75948 22847 ft 392 kts 126°
2026-05-07 01:58 1.81951 102.78146 22848 ft 392 kts 126°
2026-05-07 01:59 1.80299 102.80343 22847 ft 392 kts 126°
2026-05-07 01:59 1.78659 102.82523 22854 ft 392 kts 126°
2026-05-07 01:59 1.77014 102.84707 22856 ft 393 kts 126°
2026-05-07 01:59 1.75364 102.86906 22859 ft 392 kts 124°
2026-05-07 02:00 1.73808 102.89168 22860 ft 392 kts 121°
2026-05-07 02:00 1.72398 102.91512 22860 ft 391 kts 118°
2026-05-07 02:00 1.71106 102.93902 22859 ft 391 kts 117°
2026-05-07 02:00 1.69831 102.96303 22854 ft 391 kts 117°
2026-05-07 02:01 1.68545 102.98729 22616 ft 391 kts 117°
2026-05-07 02:01 1.67282 103.01109 22338 ft 388 kts 117°
2026-05-07 02:01 1.66008 103.03505 21974 ft 386 kts 117°
2026-05-07 02:01 1.64755 103.05859 21813 ft 374 kts 117°
2026-05-07 02:02 1.63552 103.08116 21733 ft 361 kts 117°
2026-05-07 02:02 1.62363 103.10274 21618 ft 349 kts 122°
2026-05-07 02:02 1.60864 103.12144 21470 ft 340 kts 134°
2026-05-07 02:02 1.59018 103.13666 21055 ft 342 kts 143°
2026-05-07 02:03 1.57042 103.14983 20645 ft 341 kts 144°
2026-05-07 02:03 1.55020 103.16299 20229 ft 341 kts 145°
2026-05-07 02:03 1.53034 103.17592 19820 ft 340 kts 144°
2026-05-07 02:03 1.51032 103.18900 19421 ft 338 kts 144°
2026-05-07 02:04 1.49087 103.20176 19041 ft 336 kts 144°
2026-05-07 02:04 1.47107 103.21478 18644 ft 335 kts 144°
2026-05-07 02:04 1.45154 103.22765 18261 ft 333 kts 144°
2026-05-07 02:04 1.43219 103.24042 17882 ft 331 kts 143°
2026-05-07 02:05 1.41287 103.25317 17492 ft 330 kts 143°
2026-05-07 02:05 1.39358 103.26590 17115 ft 327 kts 143°
2026-05-07 02:05 1.37455 103.27846 16750 ft 325 kts 143°
2026-05-07 02:05 1.35571 103.29091 16381 ft 323 kts 143°
2026-05-07 02:06 1.33671 103.30347 15989 ft 322 kts 143°
2026-05-07 02:06 1.31799 103.31583 15606 ft 321 kts 144°
2026-05-07 02:06 1.29938 103.32812 15218 ft 320 kts 144°
2026-05-07 02:06 1.28051 103.34057 14831 ft 318 kts 144°
2026-05-07 02:07 1.26207 103.35274 14461 ft 316 kts 144°
2026-05-07 02:07 1.22544 103.37692 13726 ft 313 kts 143°
2026-05-07 02:07 1.20718 103.38898 13352 ft 311 kts 144°
2026-05-07 02:08 1.18906 103.40095 12992 ft 309 kts 144°
2026-05-07 02:08 1.17090 103.41294 12626 ft 307 kts 144°
2026-05-07 02:08 1.15310 103.42470 12267 ft 305 kts 144°
2026-05-07 02:08 1.13529 103.43645 11912 ft 303 kts 144°
2026-05-07 02:09 1.11773 103.44806 11551 ft 302 kts 144°
2026-05-07 02:09 1.10010 103.45970 11195 ft 300 kts 144°
2026-05-07 02:09 1.08266 103.47121 10964 ft 293 kts 144°
2026-05-07 02:09 1.06578 103.48233 10867 ft 280 kts 144°
2026-05-07 02:10 1.05068 103.49380 10736 ft 267 kts 127°
2026-05-07 02:10 1.04313 103.50997 10538 ft 256 kts 95°
2026-05-07 02:10 1.04432 103.52775 10217 ft 254 kts 80°
2026-05-07 02:10 1.04721 103.54523 9907 ft 253 kts 81°
2026-05-07 02:11 1.04981 103.56261 9604 ft 251 kts 81°
2026-05-07 02:11 1.05224 103.57984 9306 ft 249 kts 82°
2026-05-07 02:11 1.05459 103.59701 9002 ft 249 kts 82°
2026-05-07 02:11 1.05689 103.61413 8699 ft 248 kts 82°
2026-05-07 02:12 1.05921 103.63148 8394 ft 248 kts 82°
2026-05-07 02:12 1.06146 103.64846 8102 ft 246 kts 82°
2026-05-07 02:12 1.06374 103.66565 7797 ft 246 kts 82°
2026-05-07 02:12 1.06597 103.68243 7496 ft 245 kts 82°
2026-05-07 02:13 1.06823 103.69953 7195 ft 245 kts 82°
2026-05-07 02:13 1.07045 103.71632 6898 ft 245 kts 83°
2026-05-07 02:13 1.07271 103.73338 6602 ft 245 kts 83°
2026-05-07 02:13 1.07488 103.75037 6307 ft 244 kts 83°
2026-05-07 02:14 1.07698 103.76704 6019 ft 242 kts 83°
2026-05-07 02:14 1.07912 103.78390 5726 ft 242 kts 83°
2026-05-07 02:14 1.08122 103.80046 5441 ft 241 kts 83°
2026-05-07 02:14 1.08336 103.81724 5156 ft 239 kts 83°
2026-05-07 02:15 1.08544 103.83359 4880 ft 237 kts 83°
2026-05-07 02:15 1.08754 103.85001 4606 ft 235 kts 83°
2026-05-07 02:15 1.08962 103.86634 4334 ft 234 kts 82°
2026-05-07 02:15 1.09448 103.88161 4247 ft 229 kts 52°
2026-05-07 02:16 1.10698 103.89101 4016 ft 226 kts 23°
2026-05-07 02:16 1.12163 103.89689 3741 ft 225 kts 24°
2026-05-07 02:16 1.13595 103.90318 3485 ft 223 kts 25°
2026-05-07 02:16 1.15027 103.90951 3244 ft 217 kts 25°
2026-05-07 02:17 1.16395 103.91545 3097 ft 207 kts 24°
2026-05-07 02:17 1.17677 103.92091 3068 ft 194 kts 24°
2026-05-07 02:17 1.18917 103.92614 2821 ft 189 kts 24°
2026-05-07 02:17 1.20108 103.93115 2602 ft 176 kts 24°
2026-05-07 02:18 1.21194 103.93571 2366 ft 163 kts 24°
2026-05-07 02:18 1.22228 103.94005 2144 ft 153 kts 24°
2026-05-07 02:18 1.23211 103.94420 1960 ft 152 kts 24°
2026-05-07 02:18 1.24182 103.94829 1781 ft 152 kts 25°
2026-05-07 02:19 1.25172 103.95246 1593 ft 151 kts 25°
2026-05-07 02:19 1.26155 103.95660 1402 ft 151 kts 25°
2026-05-07 02:19 1.27129 103.96071 1208 ft 150 kts 25°
2026-05-07 02:19 1.28101 103.96481 1011 ft 150 kts 24°
2026-05-07 02:20 1.29073 103.96891 814 ft 150 kts 24°
2026-05-07 02:20 1.30047 103.97303 619 ft 149 kts 24°
2026-05-07 02:20 1.31015 103.97711 430 ft 149 kts 24°
2026-05-07 02:20 1.31971 103.98115 241 ft 149 kts 23°
2026-05-07 02:21 1.32933 103.98521 56 ft 148 kts 23°
2026-05-07 02:21 1.33829 103.98903 28 ft 115 kts 23°
2026-05-07 02:21 1.34411 103.99147 28 ft 65 kts 22°
2026-05-07 02:21 1.34692 103.99251 28 ft 30 kts
2026-05-07 02:22 1.34848 103.99248 28 ft 6 kts 348°
2026-05-07 02:22 1.34891 103.99222 28 ft 8 kts 299°
2026-05-07 02:22 1.34890 103.99165 28 ft 9 kts 232°
2026-05-07 02:22 1.34832 103.99129 28 ft 10 kts 204°
2026-05-07 02:23 1.34761 103.99100 28 ft 11 kts 202°
2026-05-07 02:23 1.34686 103.99068 28 ft 12 kts 204°
2026-05-07 02:23 1.34601 103.99031 28 ft 14 kts 202°
2026-05-07 02:23 1.34495 103.98987 28 ft 17 kts 202°
2026-05-07 02:24 1.34378 103.98937 28 ft 18 kts 204°
2026-05-07 02:24 1.34259 103.98887 28 ft 18 kts 203°
2026-05-07 02:24 1.34141 103.98837 28 ft 16 kts 204°
2026-05-07 02:24 1.34067 103.98806 28 ft 9 kts 202°
2026-05-07 02:25 1.34044 103.98748 28 ft 10 kts 287°
2026-05-07 02:25 1.34072 103.98682 28 ft 6 kts 295°
2026-05-07 02:25 1.34057 103.98640 28 ft 7 kts 216°
2026-05-07 02:25 1.34007 103.98619 28 ft 7 kts 202°
2026-05-07 02:26 1.33952 103.98595 28 ft 9 kts 204°
2026-05-07 02:26 1.33891 103.98570 28 ft 7 kts 202°
2026-05-07 02:26 1.33868 103.98537 28 ft 3 kts 277°
2026-05-07 02:26 1.33875 103.98516 28 ft 1 kts 292°
2026-05-07 02:27 1.33878 103.98508 28 ft 0 kts 293°
2026-05-07 02:27 1.33878 103.98507 28 ft 0 kts 293°